ONEWEB-0128 (47274 NORAD) Tracking and Keplerian Element Data

This shows tracking and keplerian element data for the satellite.

Feedback or suggestion? Click here.




ElementValue
Catalog47274
NameONEWEB-0128
Epoch Orbit516
Epoch Day21.16668981
Epoch Year2021
RAAN27.7831
Inclination87.4547
Eccentricity0.0013958
Argument of Perigee124.9173
Mean Anonmoly273.6821
Mean Motion15.11046554
Decay Rate-0.01466253
L11 47274U 20100S 21021.16668981 -.01466253 00000-0 -95720-1 0 9991
L22 47274 87.4547 27.7831 0013958 124.9173 273.6821 15.11046554 5165

Live tracking and technical data element details for ONEWEB-0128 (NORAD 47274). ONEWEB-0128 can be tracked NOW for your location showing map with azimuth and elevation plus other details from your city location.

Track the satellite on the map from your city or location and see movement details for azimuth, elevation, latitude, longitude, range, height, and movement on the map or in text.







IsCatalogInMostPopularTable: catalog: 47274, numindb: 13
Update: records affected: 1



GetName: 47274 ONEWEB-0128

Hit Count: updated at: Sat, 23 Jan 2021 17:23:11 GMT